TimeCST,TemperatureF,Dew PointF,Humidity,Sea Level PressureIn,VisibilityMPH,Wind Direction,Wind SpeedMPH,Gust SpeedMPH,PrecipitationIn,Events,Conditions,WindDirDegrees,DateUTC
12:35 AM,39.2,37.4,93,30.23,10.0,Calm,Calm,-,N/A,,Clear,0,2012-11-21 06:35:00
12:55 AM,39.2,35.6,87,30.22,10.0,Calm,Calm,-,N/A,,Clear,0,2012-11-21 06:55:00
1:15 AM,39.2,33.8,81,30.23,10.0,Calm,Calm,-,N/A,,Clear,0,2012-11-21 07:15:00
1:35 AM,39.2,33.8,81,30.24,10.0,Calm,Calm,-,N/A,,Clear,0,2012-11-21 07:35:00
1:55 AM,39.2,37.4,93,30.24,10.0,Calm,Calm,-,N/A,,Clear,0,2012-11-21 07:55:00
2:35 AM,37.4,33.8,87,30.24,9.0,Calm,Calm,-,N/A,,Clear,0,2012-11-21 08:35:00
2:56 AM,37.4,33.8,87,30.25,9.0,Calm,Calm,-,N/A,,Clear,0,2012-11-21 08:56:00
3:15 AM,37.4,35.6,93,30.24,9.0,SE,3.5,-,N/A,,Clear,140,2012-11-21 09:15:00
3:55 AM,37.4,33.8,87,30.23,10.0,Calm,Calm,-,N/A,,Clear,0,2012-11-21 09:55:00
4:15 AM,37.4,33.8,87,30.23,10.0,Calm,Calm,-,N/A,,Clear,0,2012-11-21 10:15:00
4:36 AM,37.4,33.8,87,30.24,8.0,Calm,Calm,-,N/A,,Clear,0,2012-11-21 10:36:00
4:55 AM,37.4,35.6,93,30.24,8.0,ESE,3.5,-,N/A,,Clear,120,2012-11-21 10:55:00
5:15 AM,35.6,33.8,93,30.23,7.0,SSE,3.5,-,N/A,,Clear,160,2012-11-21 11:15:00
5:55 AM,37.4,33.8,87,30.24,9.0,Calm,Calm,-,N/A,,Clear,0,2012-11-21 11:55:00
6:15 AM,37.4,33.8,87,30.24,6.0,Calm,Calm,-,N/A,,Clear,0,2012-11-21 12:15:00
6:35 AM,35.6,32.0,87,30.24,6.0,Calm,Calm,-,N/A,,Clear,0,2012-11-21 12:35:00
6:55 AM,35.6,32.0,87,30.24,5.0,Calm,Calm,-,N/A,,Clear,0,2012-11-21 12:55:00
7:15 AM,35.6,33.8,93,30.25,4.0,Calm,Calm,-,N/A,,Clear,0,2012-11-21 13:15:00
7:36 AM,37.4,35.6,93,30.25,5.0,Calm,Calm,-,N/A,,Clear,0,2012-11-21 13:36:00
7:55 AM,39.2,35.6,87,30.26,5.0,Calm,Calm,-,N/A,,Clear,0,2012-11-21 13:55:00
8:15 AM,41.0,37.4,87,30.26,7.0,Calm,Calm,-,N/A,,Clear,0,2012-11-21 14:15:00
8:36 AM,44.6,39.2,81,30.27,10.0,Calm,Calm,-,N/A,,Clear,0,2012-11-21 14:36:00
8:55 AM,46.4,39.2,76,30.27,10.0,SSE,3.5,-,N/A,,Clear,160,2012-11-21 14:55:00
9:15 AM,48.2,41.0,76,30.28,10.0,Calm,Calm,-,N/A,,Clear,0,2012-11-21 15:15:00
9:55 AM,55.4,42.8,63,30.28,10.0,South,3.5,-,N/A,,Clear,190,2012-11-21 15:55:00
10:15 AM,57.2,42.8,59,30.28,10.0,South,3.5,-,N/A,,Clear,180,2012-11-21 16:15:00
10:55 AM,62.6,39.2,42,30.27,10.0,SSW,4.6,-,N/A,,Clear,210,2012-11-21 16:55:00
11:15 AM,64.4,39.2,40,30.26,10.0,South,4.6,-,N/A,,Clear,190,2012-11-21 17:15:00
11:55 AM,66.2,39.2,37,30.24,10.0,SSW,4.6,-,N/A,,Clear,200,2012-11-21 17:55:00
12:15 PM,68.0,37.4,33,30.23,10.0,SSW,3.5,-,N/A,,Clear,200,2012-11-21 18:15:00
12:35 PM,69.8,33.8,27,30.22,10.0,SSW,5.8,-,N/A,,Clear,200,2012-11-21 18:35:00
12:55 PM,69.8,33.8,27,30.21,10.0,SSW,3.5,-,N/A,,Clear,200,2012-11-21 18:55:00
1:15 PM,69.8,35.6,28,30.20,10.0,SSW,4.6,-,N/A,,Clear,210,2012-11-21 19:15:00
1:35 PM,71.6,35.6,27,30.19,10.0,SSW,4.6,-,N/A,,Clear,200,2012-11-21 19:35:00
1:55 PM,71.6,35.6,27,30.18,10.0,SSW,5.8,-,N/A,,Clear,210,2012-11-21 19:55:00
2:15 PM,71.6,35.6,27,30.17,10.0,SSW,4.6,-,N/A,,Clear,200,2012-11-21 20:15:00
2:35 PM,71.6,33.8,25,30.16,10.0,South,4.6,-,N/A,,Clear,170,2012-11-21 20:35:00
2:56 PM,71.6,35.6,27,30.16,10.0,South,8.1,-,N/A,,Clear,180,2012-11-21 20:56:00
3:15 PM,73.4,35.6,25,30.15,10.0,SSW,6.9,-,N/A,,Clear,200,2012-11-21 21:15:00
3:35 PM,71.6,35.6,27,30.15,10.0,South,4.6,-,N/A,,Clear,180,2012-11-21 21:35:00
4:15 PM,71.6,33.8,25,30.15,10.0,South,4.6,-,N/A,,Clear,190,2012-11-21 22:15:00
4:35 PM,69.8,33.8,27,30.15,10.0,SSW,4.6,-,N/A,,Clear,200,2012-11-21 22:35:00
5:15 PM,62.6,33.8,34,30.15,10.0,SSW,4.6,-,N/A,,Clear,210,2012-11-21 23:15:00
5:35 PM,60.8,33.8,36,30.15,10.0,SW,5.8,-,N/A,,Clear,220,2012-11-21 23:35:00
5:55 PM,60.8,33.8,36,30.14,10.0,SSW,4.6,-,N/A,,Clear,210,2012-11-21 23:55:00
6:15 PM,59.0,33.8,39,30.15,10.0,South,4.6,-,N/A,,Clear,190,2012-11-22 00:15:00
6:35 PM,60.8,33.8,36,30.14,10.0,South,5.8,-,N/A,,Clear,190,2012-11-22 00:35:00
7:15 PM,57.2,35.6,44,30.14,10.0,South,5.8,-,N/A,,Clear,190,2012-11-22 01:15:00
7:55 PM,53.6,33.8,47,30.14,10.0,SSE,4.6,-,N/A,,Clear,160,2012-11-22 01:55:00
8:55 PM,50.0,33.8,54,30.14,10.0,SSE,4.6,-,N/A,,Clear,160,2012-11-22 02:55:00
9:15 PM,48.2,33.8,58,30.14,10.0,SSE,5.8,-,N/A,,Clear,160,2012-11-22 03:15:00
10:15 PM,51.8,35.6,54,30.13,10.0,SSE,6.9,-,N/A,,Clear,160,2012-11-22 04:15:00
10:35 PM,48.2,33.8,58,30.12,10.0,SSE,6.9,-,N/A,,Clear,150,2012-11-22 04:35:00
10:56 PM,46.4,33.8,62,30.11,10.0,SSE,6.9,-,N/A,,Clear,150,2012-11-22 04:56:00
11:15 PM,46.4,35.6,66,30.11,10.0,SSE,6.9,-,N/A,,Clear,150,2012-11-22 05:15:00
11:35 PM,48.2,35.6,62,30.11,10.0,SSE,6.9,-,N/A,,Clear,150,2012-11-22 05:35:00
11:56 PM,48.2,35.6,62,30.11,10.0,SSE,5.8,-,N/A,,Clear,150,2012-11-22 05:56:00